Location: Jackson Park
(37.2862°N, 79.9123°W)
Time: 10:35:32
(UTC+00:00)

S-56A Canister/Altair - Pass Details

Date: 18 May 2026
Orbit: 632 x 2484 km, 38.9° (Epoch: 9 June)

Event Time Altitude Azimuth Distance (km) Brightness Sun altitude
Rises 04:45:00 0° 283° (WNW) 2,923 10.8 -32.7°
Enters shadow 04:46:32 - 283° (WNW) 2,293 10.2 -32.7°
Reaches altitude 10° 04:47:08 10° 282° (WNW) 2,051 - -32.8°
Maximum altitude 04:51:41 75° 198° (SSW) 762 - -32.9°
Drops below altitude 10° 04:57:34 10° 113° (ESE) 2,628 - -33.0°
Sets 05:00:39 0° 112° (ESE) 3,830 - -33.0°
